Location: Campbell Hill
(37.9301°N, 89.5490°W)
Time: 11:05:26
(UTC+00:00)

Meteor 2-17 Rocket - Pass Details

Date: 07 November 2025
Orbit: 936 x 955 km, 82.5° (Epoch: 07 December)

Event Time Altitude Azimuth Distance (km) Brightness Sun altitude
Rises 23:23:27 0° 356° (N) 3,629 7.4 -6.6°
Reaches altitude 10° 23:25:59 10° 360° (N) 2,683 6.7 -7.1°
Maximum altitude 23:32:04 62° 81° (E) 1,063 4.5 -8.2°
Drops below altitude 10° 23:38:07 10° 161° (SSE) 2,674 6.8 -9.4°
Sets 23:40:38 0° 165° (SSE) 3,616 7.5 -9.9°
